Location: Cabeza de los Veneras
(40.2000°N, 5.2000°W)
Time: 10:56:50
(UTC+00:00)

ADEOS - Pass Details

Date: 18 April 2024
Orbit: 790 x 793 km, 98.9° (Epoch: 21 May)

Event Time Altitude Azimuth Distance (km) Brightness Sun altitude
Rises 19:21:16 0° 170° (S) 3,278 6.5 -4.2°
Reaches altitude 10° 19:23:35 10° 172° (S) 2,353 5.8 -4.6°
Maximum altitude 19:28:46 73° 257° (WSW) 831 3.9 -5.5°
Drops below altitude 10° 19:34:00 10° 342° (NNW) 2,369 6.6 -6.4°
Sets 19:36:21 0° 345° (NNW) 3,303 7.3 -6.9°
